501  
ASUS44 KMAF 220010  
RWRMAF  
MIDLAND AREA WEATHER ROUNDUP  
NATIONAL WEATHER SERVICE MIDLAND TX  
600 PM CST MON JAN 21 2019  
   
..IN SOUTHWEST TEXAS AND SOUTHEAST NEW MEXICO
 
 
 
CITY SKY/WX TMP DP RH WIND PRES REMARKS
 
ALPINE CLEAR 70 15 12 S10G20 29.89F  
ANDREWS FAIR 67 31 25 S14G20 29.71F  
ARTESIA PTCLDY 70 21 16 SW25G33 29.65  
BIG SPRING CLOUDY 61 32 34 S16G28 29.76S  
CARLSBAD MOCLDY 73 18 12 SW17G25 29.65F  
DRYDEN N/A 60 38 43 E6 29.84F  
FORT STOCKTON CLEAR 75 23 14 S15G24 29.75F  
GUAD PASS MOCLDY 66 14 13 SW38G48 N/A  
HOBBS CLEAR 70 12 11 SW9G21 29.69F  
LAMESA NOT AVBL  
MARFA CLEAR 67 19 16 S16 29.87F  
MIDLAND AIRPK N/A 65 36 33 S15G22 29.74F  
MIDLAND INTL CLOUDY 64 34 32 S18 29.73F  
ODESSA CLOUDY 65 32 29 S17 29.74S  
PECOS CLEAR 76 19 11 SW7 29.70F  
PRESIDIO FAIR 79 30 16 CALM 29.79F  
SEMINOLE CLEAR 71 20 14 SW13 29.73F  
SNYDER CLOUDY 62 33 32 S13 29.75S  
WINK CLEAR 75 14 10 SW17 29.69F  

   
..OTHER STATIONS IN TEXAS
 
 
 
CITY SKY/WX TMP DP RH WIND PRES REMARKS
 
ABILENE CLOUDY 63 34 33 S25G32 29.76F  
AMARILLO CLOUDY 58 24 27 SE9 29.56F  
AUSTIN PTCLDY 63 48 58 SE15 29.98F  
BROWNSVILLE FAIR 69 56 62 SE16G26 30.02F  
CORPUS CHRISTI PTCLDY 65 53 65 SE22 30.01F  
DALLAS FTW CLOUDY 56 41 57 S21G32 29.91F  
DEL RIO CLEAR 66 46 48 SE15G24 29.86F  
EL PASO MOCLDY 72 14 11 W31G44 29.72F  
HOUSTON INT MOCLDY 59 50 72 SE16G24 30.10F  
LUBBOCK CLOUDY 68 22 17 S17 29.65F  
SAN ANGELO CLEAR 63 39 41 S17G28 29.80F  
SAN ANTONIO PTCLDY 63 48 58 SE18 29.98F  
WACO CLOUDY 59 45 59 S21 29.97F  
WICHITA FALLS CLOUDY 46 34 62 S21G33 29.66S WCI 38  

   
..OTHER LOCATIONS IN NEW MEXICO
 
 
 
CITY SKY/WX TMP DP RH WIND PRES REMARKS
 
ALAMOGORDO CLEAR 68 18 14 SW16G23 29.72  
ALBUQUERQUE PTCLDY 59 16 18 W23G30 29.59R  
CANNON AFB MOCLDY 62 21 21 SW10 29.62  
CLOVIS MOCLDY 64 20 18 SW23G35 29.61F  
HOLLOMAN AFB CLEAR 68 20 16 SW20G29 29.71  
ROSWELL MOCLDY 71 17 12 SW16G28 29.61S  
RUIDOSO PTCLDY 52 14 22 SW39G51 29.68  
SANTA FE PTCLDY 51 23 33 W16G24 29.58S  
TRUTH OR CONSE CLEAR 65 12 12 SW29G36 29.66F  
TUCUMCARI MOCLDY 63 22 20 SW12 29.51F  

 
 
 
CLICK HERE TO GO TO PREVIOUS BULLETINS.

The Nexlab TX Page
The Nexlab NM Page Main Text Page